Theta_e
316 316 317 317 316 316 316 315 314 313 313 313 313 313 314 314 314 311 311 320 312 306 307 309 310 306 306 305 300 304 303 305 303 299 299 299 298 300 299 302 301 299 297 297 297 294 291 315 313 309 312 318 320 322
315 316 316 316 316 316 316 316 315 314 313 313 313 313 313 314 314 313 308 313 317 309 307 312 311 313 312 311 306 306 304 304 305 299 299 299 295 297 297 293 304 299 302 299 299 300 312 315 316 319 319 316 318 320
315 315 315 315 316 316 316 316 315 314 313 312 312 313 313 313 313 311 307 310 312 308 307 309 308 315 317 316 316 304 307 308 306 307 301 299 295 298 293 296 299 307 308 302 304 307 309 313 319 320 319 318 319 318
314 314 314 314 315 316 316 316 315 314 313 312 312 312 312 312 312 311 306 310 311 307 301 306 314 308 314 316 315 314 310 309 309 308 303 300 297 302 297 299 298 302 307 304 304 308 312 316 318 318 318 320 320 317
313 314 314 314 314 315 315 316 315 314 313 312 312 312 312 312 312 310 308 311 316 307 300 301 307 313 314 315 314 313 310 308 307 303 301 298 301 301 302 301 298 303 300 299 300 311 310 310 316 318 318 316 318 317
313 313 313 313 313 314 315 315 315 314 313 312 312 311 311 312 311 307 307 316 316 315 303 296 307 310 314 315 313 312 312 308 305 304 301 303 305 301 297 295 302 304 306 307 305 316 314 315 315 321 318 317 317 316
313 313 313 313 313 314 314 315 315 314 313 312 312 312 312 311 307 303 305 310 311 314 303 298 300 312 315 314 312 310 312 309 306 304 302 302 302 303 299 295 302 306 307 310 311 312 315 315 315 320 317 317 317 318
312 312 312 312 313 313 314 314 315 314 313 313 312 311 311 310 309 308 313 311 310 308 306 298 297 303 313 307 305 312 308 310 307 304 304 302 303 303 298 303 307 308 308 308 310 312 312 318 317 320 319 318 317 316
312 312 312 312 312 313 314 314 314 314 313 313 312 311 310 309 308 312 316 313 312 309 300 299 294 297 311 307 308 308 310 304 309 301 301 303 300 297 303 305 309 311 312 312 313 314 314 312 314 317 318 318 316 314
312 312 312 312 312 313 313 313 313 313 312 311 308 308 305 312 316 315 309 305 303 304 304 297 303 298 306 305 301 303 308 304 299 302 307 299 300 307 310 311 311 311 311 314 312 310 313 315 314 315 315 316 315 316
311 311 311 312 312 313 313 313 314 311 310 309 309 308 314 317 310 306 302 300 300 297 300 300 302 300 309 300 298 303 301 304 298 302 301 301 301 306 310 311 311 312 312 313 316 319 320 318 319 317 316 318 318 319
311 311 311 312 312 312 313 313 312 309 309 305 304 311 312 307 303 299 298 302 300 299 304 303 304 307 305 306 300 302 300 303 296 305 301 297 304 309 309 309 310 311 313 314 316 316 320 322 322 322 319 316 318 321
311 311 311 311 312 312 313 313 310 309 308 312 306 303 302 302 291 294 293 298 300 305 307 307 304 306 305 305 300 299 296 297 303 299 297 302 305 307 307 308 309 311 312 312 315 317 321 324 324 324 321 324 324 322
310 311 311 311 311 312 313 311 310 309 307 305 301 289 296 295 297 300 301 303 306 310 309 309 308 308 307 300 300 295 299 300 294 292 294 302 304 305 307 309 309 309 311 311 313 318 319 321 321 323 325 325 325 324
310 310 311 311 311 312 311 310 309 309 308 302 302 292 297 302 305 306 308 308 309 310 309 307 309 309 302 298 299 297 294 292 294 293 298 303 306 306 308 313 315 312 312 312 317 318 319 321 322 322 325 326 326 326
310 310 310 311 312 311 310 309 308 310 307 303 303 300 304 302 303 306 305 305 311 310 311 310 306 302 299 298 296 294 291 289 294 299 304 306 307 309 312 315 316 319 318 319 320 322 323 323 322 323 326 325 325 326
310 309 312 311 311 310 309 307 310 304 302 300 299 305 304 304 303 305 307 307 312 309 301 304 299 299 303 297 296 298 294 297 302 304 307 308 309 311 314 313 317 320 320 320 322 324 324 325 326 326 323 324 323 324
309 312 311 311 310 309 307 307 306 303 298 301 299 302 306 307 305 306 308 310 309 305 307 302 306 300 299 295 298 303 304 306 308 308 309 310 312 314 315 314 316 319 320 320 322 325 326 324 322 324 327 325 325 327
311 312 311 310 309 309 306 304 306 298 300 303 304 305 305 306 308 309 309 310 311 311 310 306 301 299 300 305 304 306 307 309 309 312 315 317 317 316 315 317 317 317 319 320 317 321 324 325 326 327 328 328 327 329
309 309 309 309 307 308 303 304 309 301 298 302 304 303 304 305 307 308 308 308 308 309 305 302 301 303 304 311 312 311 312 314 313 310 313 317 316 315 316 316 317 317 319 318 316 311 321 323 326 326 326 323 323 326
308 308 309 309 308 306 304 304 303 303 303 301 304 304 303 306 305 305 306 310 307 304 302 306 306 308 311 316 317 317 316 316 316 316 315 315 317 316 318 319 320 320 319 318 314 315 318 323 325 325 322 320 323 327
307 309 309 308 304 304 301 305 302 305 301 301 302 304 301 301 302 304 309 306 305 306 308 309 310 312 314 313 318 321 319 322 319 318 314 315 317 318 318 320 319 320 319 319 321 318 319 321 322 324 324 323 318 325
308 308 306 304 299 295 295 305 299 302 298 301 305 302 303 305 306 314 307 308 309 315 319 316 313 313 314 321 322 321 322 317 316 318 319 320 320 323 322 322 321 319 319 321 323 322 320 312 319 322 325 322 322 321
307 302 298 297 297 293 302 300 302 300 302 299 299 299 302 305 309 309 304 307 315 317 317 317 319 317 319 320 318 317 320 322 320 318 320 322 319 318 322 323 321 323 321 321 322 323 323 322 318 322 324 325 323 322
293 293 294 289 299 296 295 297 298 298 297 300 299 300 305 310 304 303 304 307 316 314 316 316 317 317 315 314 317 320 321 321 315 319 319 325 323 322 321 318 319 323 326 323 321 320 322 322 323 324 323 323 323 325
288 297 292 296 296 295 296 295 297 298 299 298 301 306 306 302 299 299 307 313 312 312 312 315 316 315 316 316 316 315 317 321 320 322 325 323 322 322 321 316 317 322 327 327 325 322 322 323 323 323 323 322 311 324
290 294 300 304 301 300 298 300 302 299 297 298 302 301 299 295 296 306 314 316 315 318 320 319 321 318 318 319 321 325 326 326 322 321 325 324 327 326 322 320 321 325 327 327 325 324 323 323 322 322 322 323 323 324
297 299 295 299 298 300 296 298 297 298 300 307 304 297 297 298 301 309 310 316 317 315 314 317 319 317 320 321 323 322 321 323 323 325 326 323 323 324 326 325 326 310 319 316 325 325 324 323 322 321 321 321 320 322
297 300 300 297 298 299 298 297 298 301 307 306 302 301 304 309 313 314 317 317 318 316 313 314 313 318 321 323 324 326 326 322 319 316 312 314 316 321 323 325 323 323 322 320 302 309 318 322 323 322 322 321 321 322
297 302 298 297 296 295 299 302 302 305 307 306 307 307 308 310 314 317 315 314 313 313 316 316 317 318 319 322 324 323 324 326 323 321 316 316 321 326 323 326 321 324 325 322 321 321 308 316 313 319 319 320 319 320
302 302 299 298 297 301 303 306 307 307 307 307 308 306 306 311 314 316 315 316 317 317 317 317 318 321 323 324 321 314 315 320 325 326 324 323 323 324 325 324 324 324 319 316 315 314 313 313 312 312 315 315 314 314
301 299 298 296 299 304 306 304 303 304 305 305 306 309 309 308 306 313 315 318 316 317 315 318 321 324 326 324 323 322 310 318 320 325 326 325 324 326 323 324 319 317 318 317 316 315 316 314 314 314 313 313 314 314
301 302 301 300 300 301 306 307 305 305 306 306 306 307 306 304 301 310 321 321 318 318 322 324 325 321 318 316 315 313 307 307 299 296 297 297 296 302 316 318 318 317 316 315 315 314 314 314 314 315 315 315 314 314
Wind_Speed
8 9 8 9 9 9 10 10 11 11 12 14 15 16 18 19 20 11 6 5 4 4 12 8 8 9 9 5 5 9 7 6 4 5 5 4 5 5 8 7 6 4 5 2 2 1 10 6 5 4 6 15 13 17
8 8 8 9 9 9 10 10 9 10 11 13 14 15 15 15 16 15 4 8 3 4 8 15 19 17 15 10 5 3 5 7 2 2 4 4 7 6 11 8 9 5 4 5 2 3 2 3 2 4 6 10 13 15
8 8 8 9 9 9 10 9 9 9 10 11 12 13 14 14 14 10 6 7 7 5 9 6 5 2 12 11 8 3 2 2 2 3 1 3 5 5 7 8 12 3 5 5 6 9 7 5 4 3 3 7 16 17
9 8 9 9 9 10 10 9 9 9 9 10 11 12 13 14 13 11 5 7 5 5 5 6 15 10 14 10 7 3 5 3 0 2 3 3 4 5 6 9 10 8 4 11 8 13 11 3 4 4 7 7 16 17
9 10 10 10 9 10 10 9 8 8 9 10 10 12 13 14 15 10 6 6 2 3 5 9 19 8 10 7 5 4 2 2 3 2 3 6 5 8 9 12 13 6 10 6 6 7 2 4 4 4 7 9 14 12
10 11 11 10 10 9 9 9 9 9 9 9 10 11 12 12 13 6 2 4 5 3 4 6 8 8 10 4 4 5 3 3 3 2 2 3 6 6 5 7 6 8 10 10 7 7 6 6 11 8 11 17 13 10
10 10 10 10 10 9 9 9 9 9 9 9 10 10 10 10 5 3 3 3 8 4 2 6 5 1 5 6 2 3 3 2 3 3 3 5 5 7 7 16 15 16 15 13 14 6 4 9 7 12 10 12 11 11
9 10 9 9 10 10 9 9 9 8 9 9 10 11 11 12 9 4 1 9 3 4 2 4 6 6 5 4 4 3 3 3 3 3 4 4 5 5 7 8 9 9 13 14 17 13 11 8 10 11 12 10 11 9
9 9 9 9 9 9 8 7 7 9 10 10 11 14 5 3 3 2 6 7 3 2 3 2 3 4 3 4 4 5 2 3 4 4 4 3 4 7 7 8 9 13 4 7 10 13 10 10 11 14 14 14 12 12
9 9 8 8 8 8 7 7 8 10 10 9 5 4 2 2 15 7 3 1 1 1 3 4 5 5 5 3 3 5 3 3 3 6 3 5 6 7 7 7 9 13 15 18 13 10 10 12 6 9 12 13 9 8
9 8 8 7 7 7 6 7 7 9 9 4 3 1 3 7 2 2 2 3 3 3 5 5 7 7 2 1 3 3 5 4 3 2 2 4 2 2 7 7 9 12 15 16 15 6 7 5 9 6 7 7 6 7
8 7 7 6 7 7 6 6 4 3 3 3 4 5 4 2 2 3 3 3 5 4 5 4 3 1 2 1 1 3 4 4 4 5 3 4 3 3 11 16 15 14 14 16 17 16 11 5 7 8 7 5 3 4
7 7 7 7 6 6 6 5 3 6 9 3 2 3 2 2 1 5 4 4 2 1 3 3 2 4 1 0 2 2 4 3 7 3 3 2 7 11 14 17 18 14 14 14 18 16 12 8 9 7 8 5 6 5
5 6 7 7 7 7 7 5 4 4 3 3 4 4 5 5 6 5 4 4 6 4 4 3 3 3 2 1 2 3 3 4 3 3 4 5 15 18 17 17 16 15 14 14 17 13 14 11 10 7 8 4 5 4
5 6 7 7 7 8 7 6 3 3 3 3 4 5 8 9 8 3 5 3 4 4 4 3 1 3 2 1 1 3 4 4 4 4 11 12 19 19 16 13 10 8 10 10 13 11 13 14 11 9 7 6 7 5
6 4 5 9 10 10 8 4 2 3 3 4 7 8 7 7 3 1 3 6 3 4 1 1 2 1 2 1 2 2 2 4 5 4 12 14 19 18 14 14 13 9 9 11 11 10 12 13 14 9 5 6 7 7
9 3 12 13 12 9 6 2 2 4 5 5 6 8 9 8 7 2 5 5 6 3 2 1 4 2 3 2 2 3 4 7 10 11 12 17 16 18 14 13 12 13 8 9 7 10 13 12 4 6 8 5 4 4
3 6 15 15 11 6 4 4 3 5 7 7 8 8 6 3 5 5 6 5 4 2 1 2 2 3 3 2 2 4 7 11 11 11 12 13 17 14 10 11 12 11 11 13 11 6 8 5 3 4 3 3 3 3
2 8 14 17 4 2 4 5 4 5 7 8 8 6 5 6 5 6 6 6 3 1 2 2 4 4 3 3 6 7 8 7 10 11 5 3 7 9 10 9 8 10 9 9 10 8 7 8 5 5 6 5 3 4
9 10 8 10 3 3 3 3 2 5 5 5 6 7 6 5 7 6 7 7 3 1 3 3 6 8 5 4 6 7 7 8 8 9 11 4 6 7 8 7 7 9 8 7 7 9 7 7 5 7 6 8 7 7
6 4 5 3 2 2 3 3 4 5 6 5 7 7 5 6 6 8 5 5 3 6 6 5 7 8 8 4 5 5 8 9 6 4 8 6 2 7 4 6 7 4 7 6 7 6 5 4 4 3 6 4 5 4
4 5 2 0 2 2 4 5 4 5 4 7 9 7 6 8 8 5 2 3 7 6 4 6 5 6 4 6 6 6 9 8 8 8 9 2 4 5 4 6 7 2 4 4 6 7 5 3 3 2 5 6 5 5
6 1 1 2 2 3 7 5 4 4 4 4 3 3 3 2 3 3 2 4 4 1 2 3 4 5 7 8 6 6 6 7 5 7 8 7 1 3 2 3 6 3 5 4 4 6 7 10 8 5 5 3 3 4
1 3 3 4 5 5 5 4 3 4 4 6 4 5 4 2 2 3 4 1 2 3 3 5 3 4 3 3 3 5 6 4 6 6 6 5 6 7 4 3 3 2 5 1 2 2 4 4 7 9 7 3 5 4
4 3 3 4 4 5 5 5 6 5 5 6 4 6 2 3 2 3 1 0 1 2 3 4 4 3 4 3 4 5 4 2 3 5 3 3 3 4 3 2 4 7 7 4 4 4 5 5 8 10 9 9 6 11
3 8 6 7 5 6 5 3 2 3 6 5 2 2 2 3 3 2 1 1 1 2 3 3 3 4 5 4 2 3 4 4 4 3 3 1 1 2 3 6 5 6 6 4 4 6 7 8 9 11 12 13 14 10
4 6 7 6 3 5 4 5 6 5 6 3 2 2 2 2 3 1 2 4 2 3 3 2 2 3 4 6 3 3 3 3 2 2 3 4 5 5 6 6 6 4 5 6 6 6 8 8 8 9 11 11 11 11
5 4 7 8 5 3 8 8 4 4 3 3 3 2 3 3 2 3 4 4 3 1 2 1 2 3 3 5 5 5 5 4 5 4 5 7 6 7 5 4 3 6 5 6 7 8 8 7 8 10 11 10 10 9
5 5 5 7 6 4 4 4 8 5 1 4 3 4 4 6 5 5 2 2 4 5 5 5 7 5 5 6 5 2 4 2 5 5 7 1 3 4 5 4 3 3 3 5 10 9 7 5 6 7 9 8 8 8
8 8 5 6 7 6 6 7 7 7 7 7 7 8 8 9 2 4 4 4 4 5 6 7 6 4 4 4 4 5 4 5 2 7 6 4 4 2 3 2 1 3 2 3 5 4 6 2 6 10 9 7 7 7
5 3 6 8 9 10 9 9 9 9 10 9 8 9 8 3 1 5 4 4 4 5 5 6 6 4 4 1 3 2 4 4 4 12 8 3 3 3 3 3 4 3 3 7 7 8 9 9 8 9 10 10 9 9
8 9 7 10 10 9 9 10 10 11 10 10 4 5 4 3 4 3 2 2 4 4 6 6 5 4 2 5 5 4 5 2 1 5 9 3 4 4 4 3 5 8 8 9 8 7 8 8 5 8 9 10 9 8
7 8 8 9 9 9 3 4 3 3 3 2 3 2 1 1 3 3 2 2 3 5 5 1 3 5 6 12 10 7 5 4 8 15 18 16 14 10 2 6 5 5 8 7 6 8 10 10 6 6 9 9 8 8
Wind_Direction
295 301 305 305 305 303 308 316 325 333 338 340 344 349 351 353 355 356 287 11 30 299 292 257 339 319 307 315 308 336 339 38 337 337 319 323 309 322 306 318 336 307 316 330 347 118 273 11 2 47 337 325 334 336
292 303 304 301 296 298 300 306 314 325 332 335 338 341 345 348 353 349 299 337 344 251 264 310 287 267 260 258 261 276 268 311 74 331 7 334 318 298 307 290 318 353 27 312 304 245 42 39 41 74 50 341 312 320
281 293 298 300 296 294 296 299 304 315 325 329 333 336 339 342 347 356 298 302 308 297 291 240 336 263 212 222 224 295 324 58 66 119 309 272 278 311 286 300 335 355 55 357 336 336 290 288 151 106 52 321 304 316
272 278 286 288 292 287 289 286 294 305 314 319 324 329 332 333 331 333 308 303 303 299 281 303 359 334 309 285 288 238 162 132 174 132 191 223 268 272 281 296 294 294 161 215 222 237 262 206 62 19 327 313 299 313
273 277 282 283 282 283 286 285 284 291 300 308 317 323 325 326 324 305 264 266 13 335 310 299 299 285 315 215 227 26 237 231 136 226 229 257 264 263 266 269 260 247 259 279 268 257 180 170 195 204 291 264 271 298
269 274 274 275 274 275 277 279 278 280 290 301 310 313 316 322 331 298 129 46 11 335 305 302 344 278 280 130 195 237 232 176 171 187 232 232 250 274 259 274 245 284 288 325 287 233 228 157 205 186 213 258 276 302
267 271 273 274 272 271 266 265 269 275 287 296 299 301 303 306 308 274 348 341 343 324 272 290 285 294 309 276 227 228 199 143 148 169 228 242 257 255 246 262 275 269 270 289 298 292 200 200 223 215 212 244 261 277
264 268 271 272 270 266 254 255 262 273 280 287 293 296 298 295 272 270 226 237 230 267 266 286 287 285 22 327 322 329 198 156 194 212 217 228 258 222 253 253 261 258 247 259 265 255 251 234 189 187 205 222 246 271
259 261 267 268 267 260 241 248 257 271 282 293 297 292 280 221 237 109 87 123 201 304 294 226 275 305 3 319 337 298 179 217 173 205 225 217 222 225 243 272 321 316 277 288 297 298 247 233 205 189 202 223 229 251
257 262 263 264 260 243 235 241 262 278 287 299 279 223 250 272 112 130 50 144 38 303 276 260 234 269 309 33 312 298 265 243 214 225 216 195 248 299 9 1 351 341 346 339 304 305 326 319 284 220 194 219 223 253
253 259 264 255 236 226 230 247 270 319 281 200 243 30 24 131 240 191 251 220 146 231 207 235 244 255 39 337 287 296 307 283 268 40 270 271 266 11 324 325 331 333 325 315 306 283 281 340 329 331 244 214 223 225
247 252 250 231 218 218 220 234 275 276 39 332 290 267 257 210 239 269 238 225 204 257 177 235 228 158 78 92 279 286 279 286 274 327 267 259 72 316 327 324 321 318 307 311 308 306 296 305 291 294 308 255 267 255
240 240 226 210 208 213 216 216 241 286 297 218 227 265 212 202 310 234 226 219 210 157 271 253 231 146 117 354 267 286 283 289 320 239 263 4 345 304 308 301 302 296 294 294 288 283 288 249 267 269 288 308 289 210
229 232 215 198 198 202 191 199 245 293 268 239 224 289 224 205 232 215 264 347 337 212 240 290 145 197 116 181 275 269 283 303 279 278 274 304 293 302 298 297 291 282 277 275 281 279 283 284 273 280 267 270 293 182
213 216 209 196 186 179 174 197 231 245 269 257 242 238 229 232 260 265 248 167 223 319 316 302 178 124 107 284 219 315 294 299 312 287 288 299 309 308 309 314 310 276 268 277 273 260 262 270 270 255 247 262 274 217
184 170 203 168 167 163 174 183 223 239 249 248 234 256 273 294 300 289 328 294 283 287 278 333 317 121 137 223 247 254 314 263 260 251 287 303 306 312 322 321 313 308 260 261 271 265 263 259 263 263 244 239 235 212
173 232 165 156 151 156 164 241 203 221 242 238 248 246 259 274 302 300 306 313 325 301 268 234 302 10 131 209 259 154 229 241 271 274 278 290 294 302 321 314 327 332 339 315 284 257 248 242 305 269 238 230 225 187
232 149 146 145 150 151 177 225 246 241 240 241 254 264 276 312 299 286 278 292 301 296 347 245 296 231 222 220 228 236 240 264 266 271 272 278 292 291 310 317 334 341 2 343 331 333 48 86 358 312 341 236 248 272
148 145 160 170 165 263 185 213 244 263 243 250 260 269 266 290 274 262 275 270 239 329 303 178 245 253 227 169 219 255 260 260 283 304 313 87 272 285 303 324 350 2 355 342 0 360 36 57 46 18 6 6 1 22
127 119 131 149 227 269 217 214 249 260 272 299 304 278 264 260 273 260 267 260 239 192 224 227 240 256 259 241 216 243 262 275 291 314 328 60 230 279 302 325 327 338 346 357 17 29 5 15 22 60 42 46 39 25
126 129 117 200 222 272 276 257 232 250 275 267 276 285 268 264 262 251 253 265 227 218 238 234 253 273 280 285 292 237 269 280 298 306 305 339 240 257 279 329 311 328 330 333 350 21 34 9 358 32 57 6 34 349
90 157 119 8 228 232 264 247 255 313 271 263 279 263 256 255 259 265 205 249 259 237 231 248 243 254 281 300 270 235 251 285 304 307 303 248 175 270 222 225 271 252 232 267 307 320 335 309 352 324 160 168 221 252
129 119 133 135 192 220 261 246 235 234 256 261 233 247 224 228 243 129 237 213 233 205 268 230 249 253 261 278 280 276 271 282 300 301 306 306 141 356 303 249 252 241 275 262 191 252 289 330 343 338 337 37 77 39
101 151 166 193 207 255 248 212 236 242 241 244 275 287 294 317 284 199 253 51 20 338 355 331 325 289 298 340 298 279 282 250 261 269 290 356 28 317 316 325 346 169 229 343 104 229 252 271 328 44 34 35 51 13
105 210 172 231 225 245 248 229 217 238 256 277 268 270 348 325 279 253 168 192 313 318 308 300 286 276 241 256 288 322 298 260 300 310 353 29 11 328 8 20 4 30 28 23 7 33 41 40 35 49 47 28 32 57
206 196 197 206 199 220 229 261 312 328 289 272 259 359 347 308 269 273 133 229 240 258 278 280 322 353 337 305 343 5 293 315 352 320 345 179 190 33 352 38 25 27 0 358 25 73 61 52 52 51 43 37 51 68
231 225 202 216 236 258 271 283 296 249 242 250 72 39 4 268 257 48 269 261 261 238 245 305 2 319 319 328 352 307 293 307 340 4 37 47 346 347 63 52 33 351 355 28 56 57 71 63 53 55 65 56 46 43
254 266 240 205 224 247 272 271 266 260 232 82 118 170 248 235 284 239 224 259 251 288 315 290 338 258 257 281 294 309 297 305 110 123 75 46 5 317 69 86 75 7 44 23 41 43 60 62 63 69 65 66 66 45
233 233 240 241 209 209 229 247 247 277 102 146 198 217 231 200 241 234 233 300 341 342 330 336 308 300 308 300 299 314 330 330 78 83 82 326 330 315 355 0 90 88 73 70 43 47 53 70 82 91 86 82 76 71
245 227 218 243 226 227 237 235 266 273 263 251 246 257 270 257 237 74 35 332 304 306 315 309 306 305 283 275 284 344 351 12 307 145 148 186 220 157 187 259 80 306 244 127 102 88 20 38 87 68 69 71 70 81
238 224 217 235 252 251 251 259 261 258 261 266 267 266 273 19 63 62 38 7 3 316 293 292 285 299 301 299 114 89 36 335 20 98 96 120 227 201 203 213 195 227 65 83 86 90 88 82 79 73 89 94 89 85
220 223 244 252 258 261 257 251 243 248 247 252 266 34 33 1 333 331 341 337 325 310 295 277 282 292 144 112 107 80 102 292 26 159 172 177 135 174 200 236 95 98 90 77 89 92 87 83 77 99 90 76 62 83
216 225 234 250 265 269 301 331 289 279 233 191 76 93 139 131 260 275 301 227 270 279 304 290 112 121 151 103 108 113 99 74 71 86 85 71 64 36 337 92 108 100 108 111 104 77 62 59 70 84 118 99 85 68